Meridian, MS

11:19 AM CST on February 20, 2017 (GMT -0600)
Key

Weather History for KMEI - May, 2014

Change the Weather History Date:

Thursday, May 8, 2014

  Actual Average Record
Temperature  
Mean Temperature 73 °F 69 °F  
Max Temperature 86 °F 81 °F 92 °F (1952)
Min Temperature 60 °F 56 °F 41 °F (1890)
Degree Days  
Heating Degree Days 0 1  
Month to date heating degree days 12 9  
Since 1 July heating degree days 2856 2543  
Cooling Degree Days 8 5  
Month to date cooling degree days 27 32  
Year to date cooling degree days 95 115  
Growing Degree Days 23 (Base 50)    
Moisture  
Dew Point 62 °F    
Average Humidity 72    
Maximum Humidity 100    
Minimum Humidity 44    
Precipitation  
Precipitation 0.00 in 0.15 in 2.40 in (1919)
Month to date precipitation 0.00 1.18  
Year to date precipitation 29.12 22.11  
Sea Level Pressure  
Sea Level Pressure 30.09 in    
Wind  
Wind Speed 7 mph (South)    
Max Wind Speed 18 mph    
Max Gust Speed 25 mph    
Visibility 6 miles    
Events      
T = Trace of Precipitation, MM = Missing Value Source: NWS Daily Summary

Daily Weather History Graph

Daily Weather History Graph

Search for Another Location

Airport or City:

Trip Planner

Search our weather history database for the weather conditions in past years. The results will help you decide how hot, cold, wet, or windy it might be!

Date:

Astronomy

May. 08, 2014 Rise Set
Actual Time 6:02 AM CDT 7:41 PM CDT
Civil Twilight 5:35 AM CDT 8:07 PM CDT
Nautical Twilight 5:03 AM CDT 8:39 PM CDT
Astronomical Twilight 4:30 AM CDT 9:13 PM CDT
Moon 2:01 PM CDT (5/8) 2:11 AM CDT (5/8)
Length of Visible Light 14h 31m
Length of Day
13h 38m
Waxing Gibbous, 65% of the Moon is Illuminated
May 8
Waxing Gibbous
May 14
Full
May 21
Last Quarter
May 28
New
Jun 5
First Quarter

Hourly Weather History & Observations

Time (CDT) Temp. Heat Index Dew Point Humidity Pressure Visibility Wind Dir Wind Speed Gust Speed Precip Events Conditions
12:58 AM 64.0 °F - 61.0 °F 90% 30.07 in 10.0 mi South 4.6 mph - N/A   Clear
1:58 AM 63.0 °F - 61.0 °F 93% 30.06 in 9.0 mi Calm Calm - N/A   Clear
2:58 AM 63.0 °F - 61.0 °F 93% 30.06 in 9.0 mi Calm Calm - N/A   Clear
3:46 AM 60.8 °F - 59.0 °F 94% 30.07 in 1.5 mi Calm Calm - N/A   Partly Cloudy
3:49 AM 60.8 °F - 59.0 °F 94% 30.07 in 0.8 mi Calm Calm - N/A   Mist
3:58 AM 60.1 °F - 59.0 °F 96% 30.07 in 1.5 mi SSW 3.5 mph - N/A   Partly Cloudy
4:00 AM 60.8 °F - 59.0 °F 94% 30.07 in 3.0 mi SSW 3.5 mph - N/A   Partly Cloudy
4:58 AM 61.0 °F - 60.1 °F 97% 30.08 in 5.0 mi South 3.5 mph - N/A   Clear
5:37 AM 60.8 °F - 60.8 °F 100% 30.09 in 5.0 mi South 3.5 mph - N/A   Scattered Clouds
5:45 AM 62.6 °F - 60.8 °F 94% 30.10 in 5.0 mi South 3.5 mph - N/A   Mostly Cloudy
5:58 AM 62.1 °F - 61.0 °F 96% 30.09 in 4.0 mi Calm Calm - N/A   Overcast
6:09 AM 62.6 °F - 60.8 °F 94% 30.11 in 4.0 mi SSW 4.6 mph - N/A   Overcast
6:17 AM 62.6 °F - 62.6 °F 100% 30.11 in 1.8 mi SSW 4.6 mph - N/A   Overcast
6:26 AM 62.6 °F - 62.6 °F 100% 30.12 in 0.8 mi South 5.8 mph - N/A   Overcast
6:58 AM 64.0 °F - 64.0 °F 100% 30.12 in 1.0 mi South 4.6 mph - N/A   Overcast
7:05 AM 64.4 °F - 64.4 °F 100% 30.13 in 4.0 mi South 4.6 mph - N/A   Overcast
7:17 AM 64.4 °F - 64.4 °F 100% 30.12 in 4.0 mi South 4.6 mph - N/A   Overcast
7:25 AM 66.2 °F - 64.4 °F 94% 30.12 in 2.5 mi South 4.6 mph - N/A   Overcast
7:58 AM 66.9 °F - 66.0 °F 97% 30.13 in 2.5 mi SSW 4.6 mph - N/A   Overcast
8:11 AM 68.0 °F - 66.2 °F 94% 30.14 in 2.0 mi South 5.8 mph - N/A   Overcast
8:25 AM 68.0 °F - 66.2 °F 94% 30.14 in 2.0 mi South 9.2 mph - N/A   Overcast
8:33 AM 68.0 °F - 66.2 °F 94% 30.15 in 3.0 mi South 6.9 mph - N/A   Overcast
8:58 AM 69.1 °F - 66.0 °F 90% 30.15 in 5.0 mi South 8.1 mph - N/A   Overcast
9:21 AM 71.6 °F - 64.4 °F 78% 30.16 in 10.0 mi South 8.1 mph - N/A   Scattered Clouds
9:58 AM 73.9 °F - 64.0 °F 71% 30.14 in 10.0 mi South 9.2 mph - N/A   Scattered Clouds
10:58 AM 78.1 °F - 62.1 °F 58% 30.14 in 10.0 mi SSE 11.5 mph - N/A   Clear
11:58 AM 81.0 °F 81.6 °F 60.1 °F 49% 30.12 in 10.0 mi South 15.0 mph 23.0 mph N/A   Clear
12:58 PM 82.0 °F 82.7 °F 61.0 °F 49% 30.10 in 10.0 mi SSE 11.5 mph 19.6 mph N/A   Scattered Clouds
1:58 PM 84.0 °F 84.0 °F 60.1 °F 44% 30.08 in 10.0 mi South 12.7 mph 19.6 mph N/A   Mostly Cloudy
2:58 PM 84.0 °F 84.0 °F 60.1 °F 44% 30.06 in 10.0 mi South 12.7 mph - N/A   Scattered Clouds
3:58 PM 82.9 °F 82.8 °F 59.0 °F 44% 30.05 in 10.0 mi South 10.4 mph - N/A   Clear
4:58 PM 82.0 °F 82.7 °F 61.0 °F 49% 30.05 in 10.0 mi South 6.9 mph - N/A   Clear
5:58 PM 80.1 °F 81.5 °F 63.0 °F 56% 30.03 in 10.0 mi SSE 5.8 mph - N/A   Clear
6:58 PM 78.1 °F - 64.0 °F 62% 30.03 in 10.0 mi SSE 5.8 mph - N/A   Clear
7:58 PM 75.9 °F - 63.0 °F 64% 30.04 in 10.0 mi SSE 6.9 mph - N/A   Clear
8:58 PM 75.0 °F - 62.1 °F 64% 30.05 in 10.0 mi South 6.9 mph - N/A   Clear
9:58 PM 73.9 °F - 62.1 °F 66% 30.05 in 10.0 mi South 8.1 mph - N/A   Clear
10:58 PM 73.0 °F - 63.0 °F 71% 30.06 in 10.0 mi South 8.1 mph - N/A   Clear
11:58 PM 72.0 °F - 64.0 °F 76% 30.04 in 10.0 mi South 6.9 mph - N/A   Clear